Location: Ferchesar
(52.6477°N, 12.4298°E)
Time: 15:39:05
(UTC+01:00)

Tiros 1 despin weight - Pass Details

Date: 04 December 2021
Orbit: 592 x 641 km, 48.2° (Epoch: 20 January)

Event Time Altitude Azimuth Distance (km) Brightness Sun altitude
Rises 18:04:38 0° 274° (W) 2,826 ? -18.2°
Reaches altitude 10° 18:07:11 10° 262° (W) 1,923 ? -18.5°
Maximum altitude 18:10:50 26° 206° (SSW) 1,184 ? -19.1°
Enters shadow 18:14:27 10° 150° (SSE) 1,912 ? -19.6°
